Location: Canaggia
(42.5001°N, 9.3474°E)
Time: 01:45:47
(UTC+00:00)

Daily predictions for brighter satellites

Satellite Brightness Start Highest point End
(mag) Time Altitude Azimuth Time Altitude Azimuth Time Altitude Azimuth
Cosmos 1464 Rocket 4.0 00:08:47 76° WNW 00:08:47 76° WNW 00:14:48 10° N
Lacrosse 4 Rocket 3.2 00:13:01 29° NNW 00:13:01 29° NNW 00:15:36 10° NNE
Cosmos 2219 Rocket 2.5 00:06:35 10° NNW 00:11:13 60° NW 00:11:13 60° NW
Cosmos 1354 Rocket 4.4 00:16:38 60° NNW 00:16:38 60° NNW 00:21:08 10° NNE
COSMOS 2428 3.2 00:24:42 10° NNW 00:29:12 52° WNW 00:29:12 52° WNW
SL-16 R/B 3.2 00:28:36 38° ESE 00:30:26 50° ENE 00:36:26 10° N
BREEZE-M TANK 4.4 00:36:08 23° ENE 00:36:08 23° ENE 00:38:01 10° ENE
Nadezhda 4 Rocket 3.9 00:29:07 10° NNW 00:35:18 74° W 00:35:18 74° W
Cosmos 2360 Rocket 4.3 00:31:52 10° WNW 00:33:24 15° WNW 00:33:24 15° WNW
Cosmos 2034 Rocket 4.0 00:35:41 67° W 00:35:42 67° W 00:41:59 10° N
CZ-2D R/B 2.8 00:32:47 10° NNE 00:38:05 46° E 00:38:05 46° E
Okean 2 Rocket 4.1 00:41:46 43° N 00:41:46 43° N 00:44:55 10° N
GEOS 3 Rocket 3.8 00:37:22 10° NNE 00:42:45 67° NW 00:42:46 67° NW
Cosmos 2297 Rocket 2.4 00:45:36 59° E 00:45:36 59° E 00:50:59 10° NNE
Cosmos 2219 3.2 00:45:50 69° E 00:45:50 69° E 00:51:12 10° NNE
ADEOS II 3.8 00:42:23 10° NE 00:46:25 22° E 00:47:28 21° ESE
Cosmos 1092 Rocket 3.8 00:41:16 10° N 00:47:33 87° E 00:48:01 78° SSE
Cosmos 1777 Rocket 4.1 00:49:00 75° NE 00:49:00 75° NE 00:53:52 10° NNE
Cosmos 1980 3.7 00:43:47 10° NNW 00:49:29 76° ENE 00:49:51 72° E
Cosmos 2333 Rocket 3.4 00:44:45 10° NW 00:48:11 29° WNW 00:48:11 29° WNW
Helios 1B rocket 4.3 00:46:33 10° N 00:48:49 25° NW 00:48:49 25° NW
UNK 4.2 00:52:22 59° NE 00:52:22 59° NE 00:56:42 10° N
Cosmos 44 Rocket 4.3 00:51:54 10° NW 00:55:08 40° NW 00:55:08 40° NW
Cosmos 2237 Rocket 2.1 00:53:51 10° NNW 00:59:33 84° ENE 00:59:51 79° ESE
Okean 1 Rocket 3.7 01:01:02 51° NE 01:01:02 51° NE 01:04:35 10° NNE
Cosmos 1626 4.2 01:01:18 10° NNE 01:04:15 22° ENE 01:04:26 22° ENE
CZ-4B R/B 4.2 01:00:17 10° NNE 01:04:45 39° E 01:04:55 39° ESE
ATLAS 3B CENTAUR R/B 4.2 01:13:44 36° S 01:13:44 36° S 01:20:12 10° ESE
Timation 2 Rocket 4.3 01:14:34 46° W 01:15:34 50° WNW 01:21:28 10° NNE
In-Cosmos 22 4.5 01:14:11 10° NNW 01:19:15 51° W 01:19:15 51° W
Meteor 1-15 Rocket 4.1 01:22:53 68° WSW 01:23:25 73° W 01:29:04 10° N
Cosmos 1805 4.0 01:24:26 51° N 01:24:26 51° N 01:27:24 10° N
SJ 16-02 1.8 01:25:10 52° ESE 01:25:10 52° ESE 01:29:27 10° NNE
SL-14 R/B 4.3 01:24:18 10° N 01:28:01 39° ENE 01:28:24 38° E
ERBS 4.1 01:25:36 10° NNW 01:28:34 30° NE 01:31:31 10° E
DNEPR-1 R/B 4.2 01:22:56 10° NNW 01:28:40 69° NE 01:31:05 29° SE
Cosmos 2227 Rocket 2.2 01:33:34 58° WSW 01:34:27 67° WNW 01:40:07 10° NNE
Cosmos 1455 Rocket 4.1 01:34:24 35° ESE 01:35:20 40° E 01:39:29 10° NNE
Cosmos 1538 Rocket 4.3 01:31:24 10° NNW 01:35:51 49° W 01:35:51 49° W
Cosmos 2180 Rocket 4.4 01:36:43 47° S 01:38:38 83° E 01:44:48 10° N
Resurs 1-4 Rocket 2.4 01:33:44 10° N 01:38:50 51° WNW 01:39:24 48° W
Cosmos 1674 4.2 01:37:47 10° NNW 01:39:47 27° NW 01:39:47 27° NW
Cosmos 1733 3.5 01:42:54 59° NNW 01:42:54 59° NNW 01:46:08 10° N
Cosmos 1892 Rocket 3.9 01:40:31 10° N 01:44:57 63° E 01:46:08 45° SE
Cosmos 2279 Rocket 3.9 01:44:46 49° SW 01:46:21 68° W 01:52:32 10° N
Cosmos 1461 3.3 01:47:03 52° SE 01:47:22 54° ESE 01:51:46 10° NE
COBE Rocket 3.6 01:47:33 65° S 01:48:13 81° W 01:52:53 10° NNW
USA 215 3.2 01:42:16 10° NE 01:48:51 84° NW 01:51:29 40° SW
Cosmos 2026 Rocket 4.4 01:44:49 10° NNW 01:50:26 40° W 01:51:08 39° WSW
SL-24 R/B 4.3 01:53:40 59° SSW 01:54:28 71° W 01:59:25 10° N
Cosmos 2082 3.6 01:53:29 50° SW 01:54:59 79° WNW 02:00:38 10° NNE
Cosmos 1340 Rocket 3.7 01:54:19 35° SE 01:55:19 43° E 01:59:06 10° NNE
SL-4 R/B 2.7 01:58:02 11° NW 02:01:09 43° NNE 02:04:24 10° E
Cosmos 1953 4.3 01:59:20 14° SE 02:01:49 25° E 02:05:08 10° NE
Cosmos 2112 Rocket 4.1 01:56:45 10° NNW 02:02:00 75° ENE 02:06:35 13° SSE
Cosmos 1726 3.9 02:04:08 19° SE 02:05:53 28° E 02:09:05 10° NNE
Meteor 1-24 Rocket 3.5 02:01:32 10° NNW 02:06:58 67° W 02:08:55 39° SSW
CBERS-1 4.1 02:02:39 10° N 02:07:43 61° WNW 02:09:09 43° SW
SL-16 R/B 2.1 02:02:28 10° NNW 02:08:10 75° WSW 02:12:32 17° SSE
Cosmos 1937 Rocket 3.8 02:06:56 32° S 02:09:18 63° ESE 02:14:34 10° NNE
Meteor 2-5 Rocket 4.0 02:05:15 10° NNW 02:10:37 47° W 02:11:59 39° SW
H-2A R/B 4.1 02:09:34 10° SE 02:13:02 27° ENE 02:16:29 10° N
Cosmos 1898 Rocket 3.4 02:11:42 40° SSW 02:13:38 87° WNW 02:18:54 10° NNE
SL-16 R/B 3.4 02:13:43 28° WSW 02:14:15 28° W 02:19:32 10° NW
ARIANE 5 R/B 2.7 02:10:01 10° NNE 02:15:16 75° ESE 02:18:02 28° S
CZ-2D R/B 3.5 02:13:23 10° N 02:17:49 26° WNW 02:19:24 22° W
IDEFIX/ARIANE 42P 3.2 02:13:04 10° NNE 02:18:08 51° E 02:21:55 18° S
NOSS 3-1 (C) 3.2 02:17:24 36° SSW 02:19:46 83° SE 02:26:00 10° NE
Cosmos 1680 Rocket 3.4 02:14:35 10° NNW 02:19:46 65° WSW 02:22:58 23° S
USA 267 3.6 02:13:32 10° ESE 02:19:59 66° NE 02:26:28 10° NW
Cosmos 1544 Rocket 3.5 02:20:01 37° S 02:21:45 89° WNW 02:26:15 10° N
Cosmos 990 Rocket 4.0 02:23:20 36° SW 02:25:21 64° WNW 02:30:31 10° NNE
Timation 1 Rocket 4.4 02:22:56 27° SSW 02:26:17 76° ESE 02:32:15 10° NNE
ADEOS II 2.5 02:21:18 10° N 02:26:21 48° WNW 02:28:23 32° WSW
Cosmos 1607 4.0 02:20:36 10° NW 02:26:58 64° WSW 02:33:20 10° SSE
Cosmos 2263 Rocket 2.9 02:23:53 18° S 02:27:46 48° ESE 02:33:05 10° NE
Cosmos 2297 Rocket 3.7 02:27:24 17° W 02:29:53 23° NW 02:34:19 10° N
IRS-1D 4.3 02:25:31 10° N 02:30:07 37° WNW 02:31:54 28° WSW
Meteor 2-10 4.3 02:29:20 18° S 02:33:23 72° E 02:38:59 10° NNE
Okean 1-7 Rocket 3.8 02:29:12 10° NNW 02:33:28 50° W 02:35:04 33° SSW
ERS-1 4.4 02:29:22 10° N 02:34:19 73° WNW 02:36:59 27° SSW
NOSS 2-3 (D) 4.0 02:33:37 27° S 02:35:41 55° ESE 02:40:19 10° NE
IRS-1C 4.3 02:30:46 10° N 02:35:59 56° WNW 02:38:42 27° SW
Meteor 1-28 Rocket 3.3 02:36:21 35° SSW 02:37:38 55° W 02:41:23 10° NNW
Cosmos 1626 3.6 02:36:28 10° NW 02:38:57 22° WNW 02:38:57 22° WNW
Cosmos 2266 Rocket 4.2 02:34:20 10° NNW 02:40:30 53° W 02:45:02 18° SSW
Cosmos 2237 Rocket 4.1 02:40:15 10° WNW 02:41:37 12° W 02:41:37 12° W
Cosmos 1470 3.4 02:41:43 32° WSW 02:42:46 39° WNW 02:46:32 10° N
Cosmos 1602 Rocket 3.8 02:38:34 10° N 02:42:56 67° E 02:47:13 10° SSE
CZ-2C R/B 4.1 02:42:20 10° NE 02:46:15 27° E 02:50:10 10° SSE
SL-08 R/B 3.7 02:43:55 21° SSW 02:46:55 46° W 02:51:42 10° NNW
Cosmos 1603 4.2 02:42:00 10° NNW 02:47:44 64° ENE 02:53:22 10° SE
USA 229 DEB 3.7 02:48:34 22° SW 02:52:58 72° NW 02:59:50 10° NNE
USA 229 3.7 02:48:40 22° SW 02:53:03 73° NW 02:59:54 10° NNE
Cosmos 2098 Rocket 4.2 02:50:57 10° NNW 02:55:30 37° W 02:59:34 17° SSW
Nadezhda 2 Rocket 4.4 02:52:18 10° N 02:58:35 86° W 03:04:43 10° S
Cosmos 2298 Rocket 4.4 02:57:08 10° S 03:02:22 63° ESE 03:07:39 10° NNE
NOSS 2-3 (C) 3.6 03:01:08 21° SW 03:03:54 77° NW 03:08:49 10° NNE
SJ 16-02 3.3 03:02:10 13° W 03:04:03 16° WNW 03:06:52 10° NNW
NOSS 3-1 (A) 3.3 03:00:07 19° SW 03:04:05 79° NW 03:10:24 10° NE
ERBS 3.2 03:01:58 10° WNW 03:04:45 25° SW 03:07:31 10° S
Meteor 2-14 Rocket 4.4 02:59:22 10° NNW 03:05:23 67° W 03:11:22 10° S
CSL-04 DEB 4.3 03:04:35 10° S 03:08:27 57° WSW 03:12:19 10° NNW
MSX 3.8 03:08:25 10° N 03:14:10 76° WNW 03:19:55 10° SSW
Cosmos 1943 3.2 03:09:20 10° NNW 03:14:59 87° ENE 03:20:36 10° SSE
PSLV R/B 4.0 03:10:47 10° NNE 03:15:09 65° E 03:19:29 10° S
Cosmos 1626 Rocket 4.1 03:11:45 10° NNW 03:15:45 38° W 03:19:44 10° SSW
Cosmos 2227 Rocket 4.3 03:17:16 10° WNW 03:19:38 13° NW 03:22:01 10° NNW
Meteor 1-21 Rocket 4.3 03:14:16 10° NNW 03:19:40 54° W 03:25:01 10° S
PAYLOAD A 4.3 03:16:10 10° NNE 03:21:33 76° ESE 03:26:46 10° S
SeaSat 1 2.5 03:17:45 10° NNE 03:22:42 77° WNW 03:27:37 10° SSW
Landsat 5 3.4 03:19:25 10° S 03:23:11 53° W 03:27:07 10° NNW
CZ-2C R/B 3.4 03:23:11 10° N 03:26:49 39° WNW 03:30:09 11° SW
USA 215 4.4 03:25:34 10° NE 03:31:21 35° NNW 03:37:07 10° W
Cosmos 1048 Rocket 4.2 03:26:30 10° NNW 03:31:40 75° ENE 03:36:49 10° SSE
ATLAS CENTAUR R/B 2.5 03:27:46 10° S 03:31:44 39° ESE 03:35:29 10° NE
Cosmos 1356 Rocket 4.2 03:27:46 10° S 03:31:53 54° E 03:35:58 10° NNE
FALCON 9 DEB 3.0 03:28:26 10° WNW 03:31:54 70° SW 03:35:20 10° SE
Cosmos 1758 Rocket 3.5 03:29:30 10° NNW 03:33:48 68° W 03:38:05 10° S
ATLAS 3B CENTAUR R/B 3.9 03:27:09 10° WSW 03:34:10 21° SSW 03:38:19 10° SSE
ERS-2 2.5 03:31:03 10° S 03:34:29 41° W 03:37:57 10° NNW
Cosmos 2228 3.0 03:31:33 10° S 03:35:54 86° W 03:40:19 10° N
Cosmos 1953 3.6 03:35:03 11° SW 03:38:08 24° WNW 03:41:26 10° NNW
SL-4 R/B 2.5 03:37:39 10° WNW 03:40:33 26° SW 03:43:28 10° SSE
Cosmos 1726 3.8 03:38:38 10° WSW 03:41:07 17° WNW 03:43:39 10° NNW
Cosmos 1908 3.7 03:39:26 10° SSW 03:43:09 42° WNW 03:46:54 10° N
CBERS 1 LM4 rocket 4.5 03:40:35 10° N 03:45:32 76° WNW 03:50:39 10° SSW
Cosmos 2285 Rocket 4.1 03:39:58 10° SSW 03:46:13 66° WNW 03:52:30 10° NNE
H-2A R/B 3.0 03:45:31 10° SSW 03:48:57 25° W 03:52:24 10° NW
Cosmos 2150 Rocket 4.3 03:46:05 10° SW 03:51:06 53° WNW 03:56:13 10° N
ARIANE 5 R/B 4.4 03:50:41 10° NNW 03:53:44 16° WNW 03:56:47 10° W
Meteor 2-15 4.5 03:48:17 10° S 03:54:21 87° W 04:00:26 10° N
Cosmos 1825 Rocket 3.8 03:52:10 10° NNW 03:56:21 48° W 04:00:29 10° SSW
Atlas Centaur 2 4.5 03:51:54 10° SSW 03:57:55 24° SSE 04:04:18 10° ESE
